Location: Leiter
(44.7178°N, 106.2687°W)
Time: 03:23:37
(UTC+00:00)

ESTCUBE 1 - Pass Details

Date: 04 July 2022
Orbit: 646 x 657 km, 97.9° (Epoch: 13 August)

Event Time Altitude Azimuth Distance (km) Brightness Sun altitude
Exits shadow 05:00:38 30° 152° (SSE) 1,168 ? -16.3°
Maximum altitude 05:02:48 72° 75° (ENE) 686 ? -16.5°
Drops below altitude 10° 05:07:17 10° 351° (N) 2,061 ? -16.9°
Sets 05:09:31 0° 350° (N) 2,978 ? -17.1°
